Regional Weather Roundup
Issued by NWS Upton, NY

Current Version | Previous Version | Text Only | Print | Product List | Glossary On
Versions: 1 2 3 4 5 6 7 8 9 10 11 12 13 14 15 16 17 18 19 20 21 22 23 24 25 26 27 28 29 30 31 32 33 34 35 36 37 38 39 40 41 42 43 44 45 46 47 48 49 50
000 ASUS41 KOKX 300707 RWROKX REGIONAL WEATHER ROUNDUP NATIONAL WEATHER SERVICE NEW YORK NY 300 AM EDT MON MAR 30 2015 NOTE: "FAIR" INDICATES FEW OR NO CLOUDS BELOW 12,000 FEET WITH NO SIGNIFICANT WEATHER AND/OR OBSTRUCTIONS TO VISIBILITY. NYZ071-072-176-178-NJZ106-104-300800- NEW YORK CITY METRO AREA CITY SKY/WX TMP DP RH WIND PRES REMARKS CENTRAL PARK MOCLDY 39 11 31 VRB5G17 30.06F LAGUARDIA APRT MOCLDY 39 10 30 S12 30.05F WCI 32 KENNEDY INTL CLOUDY 37 18 46 SW15 30.08F WCI 28 NEWARK/LIBERTY CLOUDY 37 14 38 S13 30.05F WCI 29 BRNX BOT. GARD N/A N/A N/A N/A SW10 30.04F TETERBORO MOCLDY 37 13 37 S9 30.04F WCI 30 $$ NYZ177-179-078>081-300800- LONG ISLAND NEW YORK CITY SKY/WX TMP DP RH WIND PRES REMARKS FARMINGDALE MOCLDY 36 20 52 SW10 30.06F WCI 28 ISLIP PTCLDY 37 23 56 SW10 30.04F WCI 30 SHIRLEY PTCLDY 37 25 61 SW6 30.07F WCI 32 WESTHAMPTON MOCLDY 36 26 67 SW9 30.08F WCI 29 MONTAUK POINT N/A 37 30 75 S7 30.08F WCI 32 $$ NYZ052-065-067-300800- HUDSON VALLEY CITY SKY/WX TMP DP RH WIND PRES REMARKS WHITE PLAINS MOCLDY 35 12 38 S3 30.01F NEWBURGH CLOUDY 36 12 38 MISG 30.00F MONTGOMERY CLOUDY 33 13 43 S5 29.97F WCI 29 POUGHKEEPSIE CLOUDY 37 12 35 S3 29.99F ALBANY CLOUDY 36 11 35 S12 29.91F WCI 28 $$ NJZ001-105-106-008-010-013-015-019>022-104-300800- NEW JERSEY CITY SKY/WX TMP DP RH WIND PRES REMARKS NEWARK/LIBERTY CLOUDY 37 14 38 S13 30.05F WCI 29 TETERBORO MOCLDY 37 13 37 S9 30.04F WCI 30 CALDWELL CLOUDY 36 12 37 SW6 30.04F WCI 31 MORRISTOWN CLOUDY 37 14 38 SW5 30.04F WCI 34 SOMERVILLE MOCLDY 33 18 53 CALM 30.04F SUSSEX CLOUDY 33 14 45 SW3 30.00F ANDOVER N/A 35 11 36 VRB6 30.00F WCI 30 TRENTON MOCLDY 34 15 46 S8 30.06F WCI 27 MILLVILLE MOCLDY 37 20 50 SW8 30.09F WCI 31 ATLANTIC CITY MOCLDY 37 26 64 S9 30.11F WCI 30 WRIGHTSTOWN CLOUDY 34 18 51 SW13 30.06F WCI 25 TOMS RIVER CLOUDY 32 21 64 S6 30.09F WCI 26 BELMAR CLOUDY 34 16 47 SW8 30.07F WCI 27 $$ PAZ047>061-062-071-300800- EASTERN PENNSYLVANIA CITY SKY/WX TMP DP RH WIND PRES REMARKS PHILADELPHIA CLOUDY 38 16 40 S8 30.08F WCI 32 ALLENTOWN CLOUDY 37 14 38 SW8 30.04S WCI 31 SCRANTON CLOUDY 35 23 61 S7G25 29.92F WCI 29 $$ CTZ002-004>006-009-010-012-RIZ004-006-007-MAZ004-011-015-300800- SOUTHERN NEW ENGLAND IN CT CITY SKY/WX TMP DP RH WIND PRES REMARKS BRADLEY INTL MOCLDY 31 19 61 S6 30.00F WCI 25 HARTFORD PTCLDY 32 24 72 S8 30.03F WCI 25 DANBURY MOCLDY 35 11 36 SW8 30.01F WCI 29 WTRBRY/OXFORD PTCLDY 30 18 59 SW5 30.01F WCI 25 BRIDGEPORT PTCLDY 36 26 67 S12 30.04F WCI 28 MERIDEN PTCLDY 31 25 78 S5 30.04F WCI 26 NEW HAVEN PTCLDY 35 29 78 SW5 30.04F WCI 31 CHESTER FAIR 32 28 86 SW7 30.04F WCI 26 GROTON MOCLDY 34 30 85 SW12 30.05F WCI 25 WILLIMANTIC PTCLDY 25 19 78 CALM 30.04F IN RI CITY SKY/WX TMP DP RH WIND PRES REMARKS PROVIDENCE CLEAR 31 21 66 S8 30.06F WCI 23 BLOCK ISLAND PTCLDY 36 27 69 SW14G20 30.06F WCI 27 WESTERLY PTCLDY 34 28 79 SW7 30.07F WCI 28 IN MA CITY SKY/WX TMP DP RH WIND PRES REMARKS BOSTON NOT AVBL WORCESTER CLEAR 29 11 47 SW14 29.96F WCI 18 WESTFIELD PTCLDY 28 15 58 S6 29.99F WCI 22 PROVINCETOWN CLEAR 34 27 75 SW13 30.06F WCI 25 NANTUCKET CLEAR 33 24 69 SW13 30.09F WCI 24 $$ ANZ330-335-338-340-345-350-353-355-300800- COASTAL MARINE OBSERVATIONS STATION/POSITION TIME SKY/WX TEMP WIND PRES VSBY WAVE AIR SEA DIR/SP/G HT/PER (UTC) (F) (DEG/KT/KT) (MB) (MI) (FT/S) NY HARB ENTRANCE 0650 38 38 210/ 14/ 16 1018.0 3/10 4S FIRE IS 0603 37 N/A 4/10 20S FIRE ISLAND 0550 38 1020.3 4/10 23SW MTP 0650 N/A 4/10 HUDSON CANYON NOT AVBL EXECUTION ROCKS NOT AVBL WESTERN LI SOUND NOT AVBL CENTRAL LI SOUND NOT AVBL EASTERN LI SOUND NOT AVBL ROBBINS REEF 0600 38 220/ 12/ 16 1017.3 $$ >>>>>>>>>>>>>>>>>>>>>>>>>>>> KEY <<<<<<<<<<<<<<<<<<<<<<<<<<< > < > SKY/WX - SKY CONDITION/PRESENT WEATHER < > TMP - TEMPERATURE IN FAHRENHEIT < > DP - DEWPOINT IN FAHRENHEIT < > RH - RELATIVE HUMIDITY IN PERCENT < > WIND - DIRECTION AND SPEED IN MPH < > PRES - MEAN SEA LEVEL PRESSURE IN INCHES OF HG < > WCI - WIND CHILL INDEX < > VSB - VISIBILITY IN MILES < > HX - HEAT INDEX < > TC - TEMPERATURE IN CELSIUS < > VRB - VARIABLE WIND DIRECTION < > < >>>>>>>>>>>>>>>>>>>>>>>>>>>> KEY <<<<<<<<<<<<<<<<<<<<<<<<<<<

USA.gov is the U.S. government's official web portal to all federal, state and local government web resources and services.